Regional Weather Roundup
Issued by NWS Charleston, WV

Home | Current Version | Previous Version | Graphics & Text | Print | Product List | Glossary On
Versions: 1 2 3 4 5 6 7 8 9 10 11 12 13 14 15 16 17 18 19 20 21 22 23 24 25 26 27 28 29 30 31 32 33 34 35 36 37 38 39 40 41 42 43 44 45 46 47 48 49 50
000
ASUS41 KRLX 060210
RWRRLX
West Virginia Regional Weather Roundup
National Weather Service Charleston WV
1000 PM EDT THU MAY 05 2016

Note: "fair" indicates few or no clouds below 12,000 feet with no
significant weather and/or obstructions to visibility.

WVZ003-060300-
Northern Panhandle of West Virginia

CITY           SKY/WX    TMP DP  RH WIND       PRES   REMARKS
WHEELING         N/A     51  46  83 NW7       29.76R
$$

WVZ009-060300-
Northwest West Virginia

CITY           SKY/WX    TMP DP  RH WIND       PRES   REMARKS
PARKERSBURG    CLOUDY    52  50  93 CALM      29.80R
$$

WVZ006-060300-
Western West Virginia

CITY           SKY/WX    TMP DP  RH WIND       PRES   REMARKS
HUNTINGTON     CLOUDY    51  47  86 W6        29.81R
$$

WVZ015-060300-
West Central West Virginia

CITY           SKY/WX    TMP DP  RH WIND       PRES   REMARKS
CHARLESTON     LGT RAIN  51  49  92 NW3       29.79R
$$

WVZ022-031-060300-
North Central West Virginia

CITY           SKY/WX    TMP DP  RH WIND       PRES   REMARKS
CLARKSBURG     CLOUDY    51  49  92 CALM      29.74R
MORGANTOWN     CLOUDY    52  47  83 CALM      29.74R
$$

WVZ025-035-042-045-060300-
Southern West Virginia

CITY           SKY/WX    TMP DP  RH WIND       PRES   REMARKS
BECKLEY        LGT RAIN  44  42  93 W6        29.76S
LOGAN          NOT AVBL
BLUEFIELD      LGT RAIN  40  39  97 W7        29.77R
LEWISBURG      LGT RAIN  44  41  90 CALM      29.73R
$$

WVZ047-060300-
Northern Mountains of West Virginia

CITY           SKY/WX    TMP DP  RH WIND       PRES   REMARKS
ELKINS         LGT RAIN  48  45  89 CALM      29.73S
$$

WVZ052-060300-
Eastern Panhandle of West Virginia

CITY           SKY/WX    TMP DP  RH WIND       PRES   REMARKS
MARTINSBURG    LGT RAIN  53  48  83 CALM      29.69R
PETERSBURG     CLOUDY    55  52  90 CALM      29.71R
$$



USA.gov is the U.S. government's official web portal to all federal, state and local government web resources and services.